TimeEST,TemperatureF,Dew PointF,Humidity,Sea Level PressureIn,VisibilityMPH,Wind Direction,Wind SpeedMPH,Gust SpeedMPH,PrecipitationIn,Events,Conditions,WindDirDegrees,DateUTC
12:15 AM,41.2,28.8,61,30.32,10.0,NNE,9.2,-,N/A,,Overcast,20,2012-12-13 05:15:00
12:35 AM,41.0,28.8,62,30.33,10.0,NNE,5.8,-,N/A,,Overcast,30,2012-12-13 05:35:00
12:55 AM,41.0,28.6,61,30.34,10.0,NE,3.5,-,N/A,,Overcast,40,2012-12-13 05:55:00
1:15 AM,40.5,28.6,63,30.33,10.0,NE,8.1,-,N/A,,Overcast,40,2012-12-13 06:15:00
1:35 AM,40.5,28.4,62,30.33,10.0,NNE,6.9,-,N/A,,Overcast,30,2012-12-13 06:35:00
1:55 AM,40.3,28.2,62,30.35,10.0,Calm,Calm,-,N/A,,Overcast,0,2012-12-13 06:55:00
2:15 AM,40.3,28.0,62,30.35,10.0,NE,4.6,-,N/A,,Overcast,40,2012-12-13 07:15:00
2:35 AM,40.1,27.5,61,30.35,10.0,NE,6.9,-,N/A,,Overcast,40,2012-12-13 07:35:00
2:55 AM,40.1,27.7,61,30.35,10.0,NE,5.8,-,N/A,,Overcast,40,2012-12-13 07:55:00
3:15 AM,40.1,27.3,60,30.36,10.0,NE,8.1,-,N/A,,Overcast,40,2012-12-13 08:15:00
3:35 AM,39.9,27.3,61,30.35,10.0,NNE,5.8,-,N/A,,Overcast,30,2012-12-13 08:35:00
3:55 AM,39.7,27.0,60,30.35,10.0,NE,4.6,-,N/A,,Overcast,40,2012-12-13 08:55:00
4:15 AM,39.6,26.4,59,30.33,10.0,NNE,10.4,-,N/A,,Overcast,30,2012-12-13 09:15:00
4:35 AM,39.4,26.1,59,30.34,10.0,NE,6.9,-,N/A,,Overcast,40,2012-12-13 09:35:00
4:55 AM,39.2,25.9,59,30.34,10.0,NNE,4.6,-,N/A,,Overcast,30,2012-12-13 09:55:00
5:15 AM,39.2,26.4,60,30.35,10.0,NE,6.9,-,N/A,,Overcast,40,2012-12-13 10:15:00
5:35 AM,39.2,26.6,61,30.36,10.0,NNE,5.8,-,N/A,,Overcast,30,2012-12-13 10:35:00
5:55 AM,39.2,27.1,62,30.36,10.0,NE,4.6,-,N/A,,Overcast,50,2012-12-13 10:55:00
6:15 AM,39.2,27.1,62,30.37,10.0,NNE,3.5,-,N/A,,Overcast,20,2012-12-13 11:15:00
6:35 AM,39.2,27.0,62,30.37,10.0,NNE,6.9,-,N/A,,Overcast,30,2012-12-13 11:35:00
6:55 AM,39.2,27.1,62,30.38,10.0,NNE,3.5,-,N/A,,Overcast,30,2012-12-13 11:55:00
7:15 AM,39.2,26.4,60,30.39,10.0,NNE,6.9,-,N/A,,Overcast,20,2012-12-13 12:15:00
7:35 AM,39.2,24.8,56,30.40,10.0,NNE,4.6,-,N/A,,Overcast,30,2012-12-13 12:35:00
7:55 AM,39.2,22.8,52,30.40,10.0,NNE,8.1,-,N/A,,Overcast,30,2012-12-13 12:55:00
8:15 AM,39.2,22.5,51,30.41,10.0,NNE,6.9,-,N/A,,Overcast,20,2012-12-13 13:15:00
8:35 AM,39.2,22.8,52,30.41,10.0,NE,5.8,-,N/A,,Overcast,40,2012-12-13 13:35:00
8:55 AM,39.4,23.0,52,30.41,10.0,NNE,5.8,16.1,N/A,,Overcast,20,2012-12-13 13:55:00
9:15 AM,39.7,23.5,52,30.41,10.0,NE,6.9,-,N/A,,Overcast,50,2012-12-13 14:15:00
9:35 AM,40.1,23.7,52,30.42,10.0,NNE,5.8,-,N/A,,Overcast,30,2012-12-13 14:35:00
9:55 AM,40.6,23.7,51,30.43,10.0,NNE,8.1,-,N/A,,Mostly Cloudy,20,2012-12-13 14:55:00
10:15 AM,42.1,23.2,47,30.44,10.0,NE,8.1,-,N/A,,Scattered Clouds,50,2012-12-13 15:15:00
10:35 AM,43.2,23.4,46,30.43,10.0,North,9.2,-,N/A,,Clear,10,2012-12-13 15:35:00
10:55 AM,44.1,23.0,43,30.42,10.0,NE,6.9,-,N/A,,Clear,40,2012-12-13 15:55:00
11:15 AM,45.1,22.3,40,30.42,10.0,NNE,6.9,-,N/A,,Clear,20,2012-12-13 16:15:00
11:35 AM,45.9,21.6,38,30.41,10.0,ENE,5.8,-,N/A,,Clear,60,2012-12-13 16:35:00
11:55 AM,46.9,21.9,37,30.39,10.0,NNE,8.1,-,N/A,,Clear,20,2012-12-13 16:55:00
12:15 PM,47.7,21.2,35,30.38,10.0,NNE,4.6,-,N/A,,Clear,30,2012-12-13 17:15:00
12:35 PM,48.2,20.5,33,30.38,10.0,NNE,5.8,-,N/A,,Clear,30,2012-12-13 17:35:00
12:55 PM,49.3,20.7,32,30.37,10.0,NE,8.1,-,N/A,,Clear,50,2012-12-13 17:55:00
1:15 PM,49.6,20.3,31,30.37,10.0,NNE,4.6,-,N/A,,Clear,20,2012-12-13 18:15:00
1:35 PM,49.3,19.9,31,30.36,10.0,NNE,4.6,-,N/A,,Clear,30,2012-12-13 18:35:00
1:55 PM,49.8,18.7,29,30.36,10.0,Calm,Calm,-,N/A,,Clear,0,2012-12-13 18:55:00
2:15 PM,50.7,19.0,29,30.36,10.0,NE,5.8,-,N/A,,Clear,40,2012-12-13 19:15:00
2:35 PM,51.1,19.8,29,30.36,10.0,North,3.5,-,N/A,,Clear,10,2012-12-13 19:35:00
2:55 PM,50.7,19.0,29,30.35,10.0,NNE,4.6,-,N/A,,Clear,30,2012-12-13 19:55:00
3:15 PM,50.5,18.7,28,30.35,10.0,NE,3.5,-,N/A,,Clear,50,2012-12-13 20:15:00
3:35 PM,50.4,19.0,29,30.35,10.0,NE,4.6,-,N/A,,Clear,40,2012-12-13 20:35:00
3:55 PM,50.2,18.9,29,30.34,10.0,NE,3.5,-,N/A,,Clear,50,2012-12-13 20:55:00
4:15 PM,49.5,19.6,31,30.34,10.0,ENE,3.5,-,N/A,,Clear,60,2012-12-13 21:15:00
4:35 PM,48.4,19.8,32,30.34,10.0,Calm,Calm,-,N/A,,Clear,0,2012-12-13 21:35:00
4:55 PM,44.2,22.6,42,30.34,10.0,Calm,Calm,-,N/A,,Clear,0,2012-12-13 21:55:00
5:15 PM,38.5,24.8,58,30.34,10.0,Calm,Calm,-,N/A,,Clear,0,2012-12-13 22:15:00
5:35 PM,35.8,23.9,62,30.34,10.0,Calm,Calm,-,N/A,,Clear,0,2012-12-13 22:35:00
8:15 PM,29.1,23.2,78,30.37,10.0,Calm,Calm,-,N/A,,Clear,0,2012-12-14 01:15:00
8:35 PM,28.4,23.0,80,30.37,10.0,Calm,Calm,-,N/A,,Clear,0,2012-12-14 01:35:00
8:55 PM,28.6,22.5,78,30.37,10.0,Calm,Calm,-,N/A,,Clear,0,2012-12-14 01:55:00
9:15 PM,26.6,22.8,86,30.37,10.0,Calm,Calm,-,N/A,,Clear,0,2012-12-14 02:15:00
9:35 PM,26.6,23.0,86,30.36,10.0,Calm,Calm,-,N/A,,Clear,0,2012-12-14 02:35:00
9:55 PM,26.2,22.8,87,30.36,10.0,Calm,Calm,-,N/A,,Clear,0,2012-12-14 02:55:00
10:15 PM,26.4,22.1,84,30.37,10.0,Calm,Calm,-,N/A,,Clear,0,2012-12-14 03:15:00
10:35 PM,26.2,22.1,84,30.37,10.0,Calm,Calm,-,N/A,,Clear,0,2012-12-14 03:35:00
10:55 PM,25.3,22.1,87,30.36,10.0,Calm,Calm,-,N/A,,Clear,0,2012-12-14 03:55:00
11:15 PM,25.0,21.9,88,30.36,10.0,Calm,Calm,-,N/A,,Clear,0,2012-12-14 04:15:00
11:35 PM,25.0,21.9,88,30.36,10.0,Calm,Calm,-,N/A,,Clear,0,2012-12-14 04:35:00
11:55 PM,24.4,21.7,89,30.36,10.0,Calm,Calm,-,N/A,,Clear,0,2012-12-14 04:55:00